Regional Weather Roundup
Issued by NWS

Home | Current Version | Previous Version | Graphics & Text | Print | Product List | Glossary Off
Versions: 1 2 3 4 5 6 7 8 9 10 11 12 13 14 15 16 17 18 19 20 21 22 23 24 25 26 27 28 29 30 31 32 33 34 35 36 37 38 39 40 41 42 43 44 45 46 47 48 49 50

000
ASUS45 KBOU 202107
RWRCO

WEATHER ROUNDUP FOR COLORADO
NATIONAL WEATHER SERVICE DENVER/BOULDER CO
300 PM MDT SUN AUG 20 2017

NOTE: "FAIR" INDICATES FEW OR NO CLOUDS BELOW 12000 FEET WITH NO
SIGNIFICANT WEATHER AND/OR OBSTRUCTIONS TO VISIBILITY.

COZ001>005-013-030-031-202200-
...NORTHWEST COLORADO...

CITY           SKY/WX    TMP DP  RH WIND       PRES   REMARKS
CRAIG          FAIR      90  26  10 MISG      30.12F
HAYDEN         FAIR      83  33  16 VRB5      30.17F
MEEKER         FAIR      80  37  21 SW18G24   30.16R
RABBIT EARS PA FAIR      64  32  29 W5        30.50F
STEAMBOAT SPGS FAIR      84  32  15 S8G17     30.18F
WALDEN         PTSUNNY   72  30  21 N16       30.30S
$$

COZ006>008-011-202200-
...WEST CENTRAL VALLEYS...

CITY           SKY/WX    TMP DP  RH WIND       PRES   REMARKS
GRAND JUNCTION FAIR      93  34  12 W10       30.02F
MONTROSE       FAIR      88  35  15 NW7       30.11F
EAGLE          FAIR      86  35  16 N13G22    30.17F
RIFLE          FAIR      88  34  14 N18G31    30.09R
DELTA          FAIR      94  31  11 S8        30.04F
NUCLA          FAIR      91  27   9 N10G17    30.13F
$$

COZ017>023-064>068-202200-
...SOUTHWEST COLORADO...

CITY           SKY/WX    TMP DP  RH WIND       PRES   REMARKS
DURANGO        FAIR      83  38  20 W9        30.16F
CORTEZ         FAIR      88  37  16 SW8       30.10F
PAGOSA SPRINGS PTSUNNY   78  30  17 N7G18     30.27R THUNDER
TELLURIDE      PTSUNNY   71  31  22 CALM      30.38S
WOLF CREEK PAS NOT AVBL
$$

COZ009-010-012-014-032>034-037-058>063-202200-
...CENTRAL COLORADO...

CITY           SKY/WX    TMP DP  RH WIND       PRES   REMARKS
ASPEN          FAIR      79  29  16 NW7       30.25F
BUENA VISTA    LGT RAIN  72  32  23 SW10G28   30.30R
COPPER MTN     FAIR      64  27  24 W5        30.62S
BERTHOUD PASS  FAIR      52  46  82 S14G24    30.65F
COTTONWOOD PAS PTSUNNY   72  27  18 CALM      30.44F
GUNNISON       NOT AVBL
KREMMLING      FAIR      82  28  14 NW16      30.26F
LEADVILLE      LGT RAIN  64  34  32 SE12      30.42F
MONARCH PASS   CLOUDY    61  30  31 E9        30.69F
SALIDA         FAIR      83  25  12 N3        30.29F
SUNLIGHT       FAIR      66  27  22 W7G20     30.54F
WILKERSON PASS CLOUDY    59  30  33 NE7       30.59S
$$

COZ069>075-202200-
...SAN LUIS VALLEY/SANGRE DE CRISTO MOUNTAINS...

CITY           SKY/WX    TMP DP  RH WIND       PRES   REMARKS
ALAMOSA        FAIR      80  28  15 S5        30.23F
DEL NORTE      FAIR      77  35  22 SE7       30.28F
LA VETA PASS   NOT AVBL
SAGUACHE       FAIR      79  34  19 S6        30.27F
$$

COZ035-036-038>040-202200-
...NORTHERN COLORADO FRONT RANGE...

CITY           SKY/WX    TMP DP  RH WIND       PRES   REMARKS
DENVER INTL AP PTSUNNY   87  35  15 E8        30.11F
DMNS CITY PARK   N/A     87  31  13 E5G16     30.10F
AURORA         PTSUNNY   87  37  17 NE6       30.13F
FRONT RANGE AP FAIR      88  36  15 NE9       30.12F
ERIE MUNI ARPT FAIR      87  23   9 CALM      30.15S
BOULDER MUN AP FAIR      88  36  15 NE7       30.11F
CENTENNIAL     PTSUNNY   85  28  12 E6        30.14F
BROOMFIELD     PTSUNNY   88  34  14 NE7       30.14F
FORT COLLINS   FAIR      82  46  28 E6        30.10F
LONGMONT       FAIR      89  43  20 E5        30.12S
$$

COZ041-046-047-076>085-087-088-202200-
...PIKES PEAK/PALMER DIVIDE AND SOUTHERN FOOTHILLS...

CITY           SKY/WX    TMP DP  RH WIND       PRES   REMARKS
COLO. SPRINGS  PTSUNNY   84  43  23 NE10      30.17F
A. F. ACADEMY  PTSUNNY   82  38  21 SE7       30.18S
SCHRIEVER AFB  FAIR      82  42  23 E3        30.16F HAZE
CHEYENNE MTN   PTSUNNY   75  48  38 W7        30.18S
ELLICOTT       NOT AVBL
FALCON         FAIR      81  38  21 E6        30.23F
FORT CARSON    FAIR      84  46  26 N6        30.13S
LIMON          FAIR      86  43  22 E6        30.10F
MONUMENT HILL  FAIR      77  41  27 E7        30.25F
CANON CITY     SUNNY     90  46  22 NE10      30.07F
WALSENBURG     FAIR      91  34  13 NE5G18    30.12F
TRINIDAD       FAIR      86  41  20 NE6       30.09F
$$

COZ042>045-048>051-090-091-202200-
...NORTHEAST COLORADO...

CITY           SKY/WX    TMP DP  RH WIND       PRES   REMARKS
GREELEY ARPT   FAIR      87  48  25 E8        30.07F
AKRON          FAIR      88  51  28 E10       30.05F
BURLINGTON     FAIR      90  58  33 NE5       30.01F
WRAY           NOT AVBL
YUMA           FAIR      86  43  22 N8        30.01F
STERLING       FAIR      88  61  40 NE9       30.01S
HOLYOKE        FAIR      91  64  40 E8        30.00S
FORT MORGAN    FAIR      90  46  21 NE12G17   30.05F
$$

COZ086-089-092>099-202200-
...SOUTHEAST COLORADO...

CITY           SKY/WX    TMP DP  RH WIND       PRES   REMARKS
PUEBLO         FAIR      93  42  17 E12       30.01F
LA JUNTA       FAIR      93  48  21 E8        29.98F
LAMAR          FAIR      91  57  31 SE8       29.94F
SPRINGFIELD      N/A     87  59  38 S18       30.00F
$$



USA.gov is the U.S. government's official web portal to all federal, state and local government web resources and services.